Location: Raleigh
(35.7720°N, 78.6390°W)
Time: 10:51:28
(UTC-04:00)

Amateur Radio Satellites - All Passes

Search period start: 02 September 2015 10:21
Search period end: 03 September 2015 10:21
Location: Raleigh, 35.7720°N, 78.6390°W

Satellite Date Start Highest point End Downlink Frequencies (MHz)
Time Altitude Azimuth
UNISAT 6 02 Sep 10:24:27 10:28:35 32° 71° (ENE) 10:32:48 437.425
SEEDS 02 Sep 10:26:54 10:30:52 42° 286° (WNW) 10:34:47 437.485
YUBILEINY 02 Sep 10:38:41 10:45:16 23° 277° (W) 10:51:24 435.215
Oscar 11 02 Sep 10:40:52 10:45:10 70° 101° (E) 10:49:27 145.826/435.025
COMPASS 1 02 Sep 10:46:20 10:50:04 32° 287° (WNW) 10:53:44 437.405
TIGRISAT 02 Sep 10:51:48 10:56:24 62° 75° (ENE) 11:01:05 435.000
AAUSAT CUBESAT 2 02 Sep 10:55:10 10:58:49 30° 288° (WNW) 11:02:24 437.432
AUBIESAT-1 02 Sep 10:57:42 11:02:26 76° 72° (ENE) 11:07:07 437.475
M-CUBED/EXP-1 PRIME 02 Sep 11:04:33 11:09:21 78° 254° (WSW) 11:14:07 437.505
DELFI C3 02 Sep 11:07:24 11:11:24 86° 284° (WNW) 11:15:22 145.870
AISAT 02 Sep 11:07:53 11:07:57 10° 89° (E) 11:08:21 437.250
CUSAT 1 02 Sep 11:08:31 11:16:24 60° 78° (ENE) 11:24:27 437.405
ANTELSAT 02 Sep 11:09:31 11:14:12 81° 258° (WSW) 11:18:57 437.575/2403.000
SO-50 02 Sep 11:14:54 11:19:22 35° 247° (WSW) 11:23:40 436.795
POLYITAN 1 02 Sep 11:15:00 11:18:56 38° 73° (ENE) 11:22:58 437.675
DUCHIFAT 1 02 Sep 11:15:58 11:19:50 37° 73° (ENE) 11:23:47 145.980
POPSAT HIP 1 02 Sep 11:16:56 11:20:52 39° 73° (ENE) 11:24:53 437.405
BUGSAT 1 02 Sep 11:17:10 11:20:17 22° 70° (ENE) 11:23:33 437.445
PHONESAT 2.4 02 Sep 11:21:54 11:24:58 31° 211° (SSW) 11:28:00 2401.200-2431.200
Cosmos 2491 02 Sep 11:24:23 11:30:50 21° 294° (WNW) 11:36:52 435.465 / 435.565
HO-68 02 Sep 11:25:01 11:30:38 24° 297° (WNW) 11:36:01 435.675
ZACube-1 02 Sep 11:27:39 11:32:01 52° 285° (WNW) 11:36:14 437.345
FUNcube-1 02 Sep 11:32:19 11:36:37 47° 286° (WNW) 11:40:47 145.935
VELOX 1 02 Sep 11:32:45 11:36:01 20° 94° (E) 11:39:24 145.980
NANOSAT C BR1 02 Sep 11:33:45 11:37:56 63° 76° (ENE) 11:42:10 145.865
QB50P2 02 Sep 11:34:02 11:38:15 68° 75° (ENE) 11:42:32 145.880/145.840
50 SAT 02 Sep 11:35:10 11:38:18 24° 95° (E) 11:41:28 437.505
CUBEBUG 2 02 Sep 11:35:12 11:39:06 26° 290° (WNW) 11:42:48 437.445
PCSat 02 Sep 11:38:13 11:43:40 85° 61° (ENE) 11:49:06 145.827
UWE-3 02 Sep 11:38:34 11:42:35 30° 289° (WNW) 11:46:25 435.000/436.395/437.385
DANDE 02 Sep 11:47:54 11:55:50 80° 81° (E) 12:04:25 436.750
QB50P1 02 Sep 11:48:05 11:52:19 84° 258° (WSW) 11:56:36 145.935-145.965
Cosmos 2504 02 Sep 11:50:45 11:58:54 55° 269° (W) 12:06:28 435.465 / 435.565
HUMSAT D 02 Sep 11:59:01 12:03:12 59° 284° (WNW) 12:07:16 437.325/437.525
UNISAT 6 02 Sep 12:01:43 12:05:24 22° 267° (W) 12:08:59 437.425
DX 1 02 Sep 12:11:38 12:16:03 85° 284° (WNW) 12:20:26 434.975-435.025
UKube-1 02 Sep 12:21:38 12:25:58 73° 284° (WNW) 12:30:17 .
SPROUT 02 Sep 12:26:23 12:28:37 14° 91° (E) 12:31:02 437.525
TIGRISAT 02 Sep 12:32:06 12:33:37 11° 271° (W) 12:34:50 435.000
ESTCUBE 1 02 Sep 12:33:26 12:37:57 78° 102° (ESE) 12:42:27 437.505/2401.250
CUBEBUG 1 02 Sep 12:35:49 12:40:14 68° 101° (E) 12:44:38 437.445
AISAT 02 Sep 12:40:33 12:45:00 62° 285° (WNW) 12:49:24 437.250
CUSAT 1 02 Sep 12:51:55 12:58:35 28° 272° (W) 13:05:03 437.405
BUGSAT 1 02 Sep 12:52:20 12:55:40 24° 265° (W) 12:58:58 437.445
POLYITAN 1 02 Sep 12:52:29 12:55:02 15° 268° (W) 12:57:25 437.675
DUCHIFAT 1 02 Sep 12:53:12 12:55:48 15° 268° (W) 12:58:16 145.980
POPSAT HIP 1 02 Sep 12:54:31 12:56:58 14° 269° (W) 12:59:13 437.405
JUGNU 02 Sep 13:05:43 13:08:47 14° 172° (S) 13:11:53 437.505
VELOX 1 02 Sep 13:08:39 13:12:37 31° 288° (WNW) 13:16:32 145.980
50 SAT 02 Sep 13:09:53 13:12:41 19° 290° (WNW) 13:15:22 437.505
TISAT 1 02 Sep 13:22:14 13:26:08 35° 97° (E) 13:30:03 437.305
Oscar 19 02 Sep 13:24:40 13:29:27 41° 72° (ENE) 13:34:19 437.125/150
GONETS M04 02 Sep 13:28:18 13:35:45 31° 71° (ENE) 13:43:26
DANDE 02 Sep 13:32:45 13:38:30 21° 273° (W) 13:44:02 436.750
SWISSCUBE 02 Sep 13:50:50 13:52:35 12° 90° (E) 13:54:39 437.505
SPROUT 02 Sep 14:00:49 14:04:55 41° 286° (WNW) 14:08:59 437.525
CUBEBUG 1 02 Sep 14:15:38 14:16:05 10° 294° (WNW) 14:16:16 437.445
Gurwin Techsat 1B 02 Sep 14:19:36 14:24:32 42° 72° (ENE) 14:29:33 435.225
SRMSAT 02 Sep 14:19:42 14:21:55 12° 169° (S) 14:24:13 437.500
ITAMSAT 1 02 Sep 14:27:24 14:32:11 40° 72° (ENE) 14:37:02 435.822/435.867
ITUPSAT 1 02 Sep 14:28:20 14:32:26 29° 96° (E) 14:36:35 437.325
BEESAT 3 02 Sep 14:34:37 14:38:28 45° 115° (ESE) 14:42:23 437.485
ISS 02 Sep 14:41:27 14:43:49 19° 29° (NNE) 14:46:14 145.825
BEESAT 2 02 Sep 14:49:18 14:53:14 49° 116° (ESE) 14:57:13 435.950
JAS-2 02 Sep 14:50:38 14:57:52 48° 70° (ENE) 15:05:22 435.910
JUGNU 02 Sep 14:53:29 14:57:04 16° 182° (S) 15:00:37 437.505
TISAT 1 02 Sep 14:58:46 15:01:39 17° 291° (WNW) 15:04:22 437.305
BEESAT 02 Sep 14:59:54 15:04:38 67° 101° (E) 15:09:22 436.000
RS-15 02 Sep 15:00:00 15:08:28 29° 105° (ESE) 15:17:35 29.354- 29.394
Cosmos 2499 02 Sep 15:02:23 15:09:43 32° 71° (ENE) 15:16:47 435.465 / 435.565
Oscar 19 02 Sep 15:05:07 15:09:00 20° 267° (W) 15:12:43 437.125/150
AO-7 02 Sep 15:10:58 15:18:01 33° 62° (ENE) 15:25:15 29.400- 29.500
GONETS M04 02 Sep 15:24:32 15:32:59 52° 269° (W) 15:41:23
SWISSCUBE 02 Sep 15:26:12 15:30:53 57° 286° (WNW) 15:35:32 437.505
AIST 2 02 Sep 15:38:16 15:41:59 31° 113° (ESE) 15:45:46 435.215
KKS-1 02 Sep 15:42:08 15:45:58 28° 96° (E) 15:49:51 437.445
HORYU 2 02 Sep 15:49:09 15:53:01 30° 71° (ENE) 15:56:59 437.375
Gurwin Techsat 1B 02 Sep 16:00:45 16:04:44 21° 267° (W) 16:08:33 435.225
ITUPSAT 1 02 Sep 16:06:18 16:10:13 25° 290° (WNW) 16:14:01 437.325
SRMSAT 02 Sep 16:06:46 16:10:21 16° 178° (S) 16:13:55 437.500
ITAMSAT 1 02 Sep 16:08:00 16:11:53 21° 267° (W) 16:15:37 435.822/435.867
BEESAT 3 02 Sep 16:14:07 16:16:40 15° 312° (NW) 16:19:04 437.485
ISS 02 Sep 16:17:17 16:20:24 43° 226° (SW) 16:23:29 145.825
BEESAT 2 02 Sep 16:29:09 16:31:35 15° 313° (NW) 16:33:53 435.950
JAS-2 02 Sep 16:36:13 16:43:02 34° 267° (W) 16:49:55 435.910
BEESAT 02 Sep 16:40:14 16:41:59 12° 295° (WNW) 16:43:27 436.000
JUGNU 02 Sep 16:43:12 16:45:20 12° 192° (SSW) 16:47:22 437.505
STARS 02 Sep 16:54:42 16:59:09 73° 285° (WNW) 17:03:33 437.465
Cosmos 2499 02 Sep 16:55:05 17:03:12 48° 270° (W) 17:10:41 435.465 / 435.565
AO-7 02 Sep 17:02:26 17:10:32 52° 259° (WSW) 17:18:36 29.400- 29.500
RS-15 02 Sep 17:09:10 17:20:03 69° 304° (NW) 17:31:21 29.354- 29.394
AIST 2 02 Sep 17:17:12 17:20:36 22° 309° (NW) 17:23:56 435.215
KKS-1 02 Sep 17:18:53 17:22:29 23° 290° (WNW) 17:25:57 437.445
HORYU 2 02 Sep 17:26:11 17:29:41 22° 266° (W) 17:33:06 437.375
MOZHAYETS 4 02 Sep 17:44:05 17:48:40 88° 283° (WNW) 17:53:13
SRMSAT 02 Sep 17:55:46 17:58:46 14° 188° (S) 18:01:43 437.500
Cubesat XI-IV 02 Sep 18:00:36 18:05:08 30° 69° (ENE) 18:09:44 437.490
CUBESAT XI-V 02 Sep 18:08:22 18:10:05 12° 90° (E) 18:12:06 437.345
O/OREOS (USA 219) 02 Sep 18:34:20 18:38:25 34° 104° (ESE) 18:42:34 437.305
CUTE-I 02 Sep 18:44:04 18:49:23 79° 76° (ENE) 18:54:43 437.470
BRITE-PL 02 Sep 18:49:43 18:50:54 11° 64° (ENE) 18:52:24 437.365/2234.400
GOMX 1 02 Sep 19:08:53 19:09:44 11° 64° (ENE) 19:10:54 467.674
RS-15 02 Sep 19:27:10 19:35:16 21° 332° (NNW) 19:43:15 29.354- 29.394
Cosmos 2491 02 Sep 19:38:53 19:46:16 31° 71° (ENE) 19:53:53 435.465 / 435.565
Cubesat XI-IV 02 Sep 19:40:32 19:45:12 30° 264° (W) 19:49:47 437.490
AIST 1 02 Sep 19:42:41 19:47:02 81° 83° (E) 19:51:24
CUBESAT XI-V 02 Sep 19:43:22 19:47:55 55° 285° (WNW) 19:52:28 437.345
YUBILEINY 02 Sep 19:46:43 19:50:03 13° 80° (E) 19:54:10 435.215
HO-68 02 Sep 20:02:08 20:08:18 34° 66° (ENE) 20:14:38 435.675
O/OREOS (USA 219) 02 Sep 20:14:34 20:17:58 20° 301° (WNW) 20:21:16 437.305
STRAND 1 02 Sep 20:21:21 20:26:28 82° 101° (ESE) 20:31:36 437.568
BRITE-PL 02 Sep 20:24:33 20:28:50 61° 260° (W) 20:33:29 437.365/2234.400
CUTE-I 02 Sep 20:29:16 20:30:10 10° 272° (W) 20:30:39 437.470
GOMX 1 02 Sep 20:42:44 20:47:12 71° 260° (W) 20:52:01 467.674
CUTE 1.7 + AOD 2 02 Sep 20:43:33 20:47:38 45° 74° (ENE) 20:51:44 437.475
DOVE 4 02 Sep 20:46:01 20:50:36 74° 76° (ENE) 20:55:30 437.250
PRISM 02 Sep 20:52:55 20:56:57 54° 285° (WNW) 21:00:58 437.425
CUBEBUG 2 02 Sep 20:54:38 20:57:32 17° 68° (ENE) 21:00:39 437.445
CANX-2 02 Sep 20:57:40 21:01:57 78° 77° (ENE) 21:06:14 2200.000
UWE-3 02 Sep 20:57:55 21:00:10 14° 67° (ENE) 21:02:39 435.000/436.395/437.385
SEEDS 02 Sep 21:15:23 21:19:39 88° 72° (ENE) 21:23:54 437.485
CINEMA 3 02 Sep 21:16:14 21:20:51 66° 76° (ENE) 21:25:44 145.822/145.860
Oscar 11 02 Sep 21:32:48 21:36:46 37° 73° (ENE) 21:40:48 145.826/435.025
COMPASS 1 02 Sep 21:33:48 21:38:00 73° 258° (WSW) 21:42:13 437.405
Cosmos 2491 02 Sep 21:35:07 21:43:31 52° 269° (W) 21:51:52 435.465 / 435.565
YUBILEINY 02 Sep 21:36:59 21:45:45 84° 96° (E) 21:54:37 435.215
AAUSAT CUBESAT 2 02 Sep 21:42:09 21:46:19 69° 259° (W) 21:50:30 437.432
RS-15 02 Sep 21:48:48 21:54:06 14° 8° (N) 21:59:42 29.354- 29.394
HO-68 02 Sep 21:49:10 21:55:54 42° 262° (W) 22:02:36 435.675
DELFI C3 02 Sep 21:51:30 21:55:13 36° 74° (ENE) 21:58:57 145.870
STRAND 1 02 Sep 22:03:48 22:05:05 11° 297° (WNW) 22:06:02 437.568
50 SAT 02 Sep 22:18:43 22:18:50 10° 67° (ENE) 22:19:12 437.505
ZACube-1 02 Sep 22:19:54 22:24:26 84° 79° (E) 22:29:04 437.345
CUTE 1.7 + AOD 2 02 Sep 22:21:48 22:23:50 13° 270° (W) 22:25:36 437.475
FUNcube-1 02 Sep 22:24:17 22:28:49 89° 257° (WSW) 22:33:27 145.935
Cosmos 2504 02 Sep 22:26:43 22:32:19 22° 83° (E) 22:38:32 435.465 / 435.565
VELOX 1 02 Sep 22:28:54 22:30:55 13° 67° (ENE) 22:33:10 145.980
CUBEBUG 2 02 Sep 22:29:26 22:33:52 44° 262° (W) 22:38:24 437.445
UWE-3 02 Sep 22:31:45 22:36:15 53° 261° (W) 22:40:50 435.000/436.395/437.385
HUMSAT D 02 Sep 22:47:14 22:51:30 64° 76° (ENE) 22:55:48 437.325/437.525
TIGRISAT 02 Sep 22:48:01 22:50:39 16° 91° (E) 22:53:27 435.000
BEESAT 3 02 Sep 22:56:58 22:58:50 13° 46° (NE) 23:00:50 437.485
CINEMA 3 02 Sep 22:57:24 22:58:39 11° 273° (W) 22:59:35 145.822/145.860
DX 1 02 Sep 23:04:14 23:08:27 56° 74° (ENE) 23:12:44 434.975-435.025
ANTELSAT 02 Sep 23:05:11 23:08:55 26° 95° (E) 23:12:40 437.575/2403.000
Oscar 11 02 Sep 23:10:18 23:13:07 16° 268° (W) 23:15:45 145.826/435.025
BEESAT 2 02 Sep 23:12:06 23:14:15 14° 47° (NE) 23:16:31 435.950
UKube-1 02 Sep 23:13:18 23:17:33 64° 75° (ENE) 23:21:50 .
NANOSAT C BR1 02 Sep 23:23:17 23:25:07 13° 91° (E) 23:27:11 145.865
QB50P2 02 Sep 23:23:47 23:25:56 14° 91° (E) 23:28:17 145.880/145.840
DELFI C3 02 Sep 23:28:13 23:30:27 14° 268° (W) 23:32:29 145.870
CUBEBUG 1 02 Sep 23:29:13 23:33:10 37° 73° (ENE) 23:37:13 437.445
ESTCUBE 1 02 Sep 23:30:09 23:34:27 49° 74° (ENE) 23:38:48 437.505/2401.250
AISAT 02 Sep 23:35:05 23:39:28 82° 78° (ENE) 23:43:55 437.250
QB50P1 02 Sep 23:36:53 23:39:56 19° 93° (E) 23:43:07 145.935-145.965
YUBILEINY 02 Sep 23:37:59 23:43:51 18° 296° (WNW) 23:49:15 435.215
SO-50 02 Sep 23:47:49 23:50:18 15° 109° (ESE) 23:53:04 436.795
50 SAT 02 Sep 23:49:04 23:52:56 53° 260° (W) 23:56:50 437.505
UNISAT 6 02 Sep 23:55:30 00:00:03 80° 283° (WNW) 00:04:28 437.425
RS-15 03 Sep 00:01:48 00:11:58 33° 41° (NE) 00:22:42 29.354- 29.394
VELOX 1 03 Sep 00:02:50 00:07:05 49° 261° (W) 00:11:22 145.980
AIST 2 03 Sep 00:04:34 00:05:25 11° 43° (NE) 00:06:28 435.215
TISAT 1 03 Sep 00:12:18 00:15:11 19° 69° (ENE) 00:18:11 437.305
CUSAT 1 03 Sep 00:12:55 00:16:40 58° 94° (E) 00:21:42 437.405
Cosmos 2504 03 Sep 00:15:42 00:23:46 69° 279° (W) 00:32:19 435.465 / 435.565
AUBIESAT-1 03 Sep 00:16:18 00:20:07 87° 288° (WNW) 00:23:37 437.475
TIGRISAT 03 Sep 00:23:24 00:27:39 40° 287° (WNW) 00:31:45 435.000
M-CUBED/EXP-1 PRIME 03 Sep 00:23:56 00:27:43 54° 290° (WNW) 00:31:12 437.505
BEESAT 3 03 Sep 00:33:12 00:37:08 54° 244° (WSW) 00:40:58 437.485
PCSat 03 Sep 00:36:07 00:39:13 16° 106° (ESE) 00:42:34 145.827
BUGSAT 1 03 Sep 00:36:14 00:40:27 58° 100° (E) 00:44:39 437.445
POLYITAN 1 03 Sep 00:38:32 00:42:51 73° 284° (WNW) 00:47:06 437.675
DUCHIFAT 1 03 Sep 00:38:35 00:42:53 78° 283° (WNW) 00:47:08 145.980
POPSAT HIP 1 03 Sep 00:40:13 00:44:32 71° 283° (WNW) 00:48:46 437.405
ANTELSAT 03 Sep 00:41:55 00:45:37 24° 290° (WNW) 00:49:10 437.575/2403.000
DX 1 03 Sep 00:44:15 00:45:08 10° 270° (W) 00:45:42 434.975-435.025
BEESAT 2 03 Sep 00:48:42 00:52:37 49° 244° (WSW) 00:56:27 435.950
SPROUT 03 Sep 00:51:29 00:55:47 81° 258° (WSW) 01:00:06 437.525
SWISSCUBE 03 Sep 00:55:49 00:57:03 11° 65° (ENE) 00:58:35 437.505
NANOSAT C BR1 03 Sep 00:57:08 01:01:14 44° 286° (WNW) 01:05:17 145.865
DANDE 03 Sep 00:57:53 01:01:16 69° 281° (W) 01:05:51 436.750
QB50P2 03 Sep 00:58:00 01:02:04 41° 287° (WNW) 01:06:04 145.880/145.840
CUBEBUG 1 03 Sep 01:07:02 01:09:44 16° 268° (W) 01:12:15 437.445
ESTCUBE 1 03 Sep 01:09:32 01:11:39 13° 270° (W) 01:13:31 437.505/2401.250
QB50P1 03 Sep 01:12:05 01:15:51 30° 288° (WNW) 01:19:33 145.935-145.965
SO-50 03 Sep 01:25:44 01:30:24 55° 303° (WNW) 01:35:15 436.795
ITUPSAT 1 03 Sep 01:32:39 01:36:29 25° 70° (ENE) 01:40:25 437.325
Oscar 19 03 Sep 01:40:03 01:43:28 18° 92° (E) 01:47:05 437.125/150
AIST 2 03 Sep 01:40:25 01:44:35 77° 241° (WSW) 01:48:40 435.215
TISAT 1 03 Sep 01:46:58 01:50:44 31° 263° (W) 01:54:29 437.305
CUSAT 1 03 Sep 01:59:26 02:00:20 10° 302° (WNW) 02:00:56 437.405
BEESAT 03 Sep 02:03:25 02:08:04 55° 74° (ENE) 02:12:44 436.000
RS-15 03 Sep 02:13:50 02:25:47 78° 243° (WSW) 02:38:00 29.354- 29.394
BUGSAT 1 03 Sep 02:14:14 02:15:27 11° 293° (WNW) 02:16:25 437.445
Cosmos 2504 03 Sep 02:15:26 02:18:01 11° 301° (WNW) 02:19:52 435.465 / 435.565
PCSat 03 Sep 02:16:53 02:22:11 58° 299° (WNW) 02:27:33 145.827
GONETS M04 03 Sep 02:25:45 02:33:26 39° 88° (E) 02:41:20
SWISSCUBE 03 Sep 02:29:38 02:34:23 70° 258° (WSW) 02:39:09 437.505
VERMONT LUNAR 03 Sep 02:36:10 02:39:02 42° 152° (SSE) 02:41:54 437.305
KKS-1 03 Sep 02:38:12 02:41:14 19° 69° (ENE) 02:44:27 437.445
Gurwin Techsat 1B 03 Sep 02:39:22 02:43:15 21° 93° (E) 02:47:18 435.225
ITAMSAT 1 03 Sep 02:44:01 02:47:25 18° 92° (E) 02:51:01 435.822/435.867
ITUPSAT 1 03 Sep 03:10:07 03:14:17 29° 264° (W) 03:18:23 437.325
Oscar 19 03 Sep 03:18:08 03:23:06 46° 288° (WNW) 03:28:01 437.125/150
Cosmos 2499 03 Sep 03:34:58 03:41:39 28° 85° (E) 03:48:52 435.465 / 435.565
BEESAT 03 Sep 03:44:02 03:46:19 13° 270° (W) 03:48:19 436.000
STARS 03 Sep 03:48:23 03:52:45 68° 76° (ENE) 03:57:10 437.465
JAS-2 03 Sep 03:49:36 03:56:06 49° 97° (E) 04:01:51 435.910
PHONESAT 2.4 03 Sep 04:04:46 04:07:18 20° 146° (SE) 04:09:53 2401.200-2431.200
VERMONT LUNAR 03 Sep 04:12:35 04:15:27 42° 347° (NNW) 04:18:19 437.305
KKS-1 03 Sep 04:13:34 04:17:39 34° 263° (W) 04:21:43 437.445
Gurwin Techsat 1B 03 Sep 04:18:27 04:23:25 41° 288° (WNW) 04:28:21 435.225
GONETS M04 03 Sep 04:22:10 04:30:15 41° 286° (WNW) 04:38:16
ITAMSAT 1 03 Sep 04:22:14 04:27:12 46° 288° (WNW) 04:32:07 435.822/435.867
RS-15 03 Sep 04:30:04 04:36:53 16° 259° (W) 04:42:37 29.354- 29.394
MOZHAYETS 4 03 Sep 04:42:53 04:47:25 61° 75° (ENE) 04:51:59
O/OREOS (USA 219) 03 Sep 04:46:51 04:51:13 41° 65° (ENE) 04:55:34 437.305
AO-7 03 Sep 05:06:54 05:15:08 66° 103° (ESE) 05:23:22 29.400- 29.500
HORYU 2 03 Sep 05:18:57 05:23:26 90° 245° (WSW) 05:27:52 437.375
Cosmos 2499 03 Sep 05:26:00 05:34:19 57° 282° (WNW) 05:43:00 435.465 / 435.565
JAS-2 03 Sep 05:35:22 05:40:45 25° 296° (WNW) 05:45:30 435.910
PHONESAT 2.4 03 Sep 05:41:31 05:44:56 80° 339° (NNW) 05:48:22 2401.200-2431.200
VERMONT LUNAR 03 Sep 05:49:30 05:52:13 31° 4° (N) 05:54:56 437.305
Cubesat XI-IV 03 Sep 06:21:52 06:24:35 14° 90° (E) 06:27:35 437.490
MOZHAYETS 4 03 Sep 06:23:53 06:25:07 11° 271° (W) 06:26:00
O/OREOS (USA 219) 03 Sep 06:27:29 06:30:19 16° 259° (W) 06:32:57 437.305
CUBESAT XI-V 03 Sep 06:43:34 06:48:09 80° 258° (WSW) 06:52:46 437.345
AO-7 03 Sep 07:00:49 07:07:23 26° 300° (WNW) 07:13:41 29.400- 29.500
CUTE-I 03 Sep 07:04:18 07:09:16 39° 98° (E) 07:14:15 437.470
ISS 03 Sep 07:18:39 07:21:07 20° 131° (SE) 07:23:39 145.825
PHONESAT 2.4 03 Sep 07:19:53 07:23:04 36° 356° (N) 07:26:15 2401.200-2431.200
VERMONT LUNAR 03 Sep 07:25:53 07:28:52 79° 21° (NNE) 07:31:49 437.305
STRAND 1 03 Sep 07:34:18 07:39:24 87° 77° (ENE) 07:44:31 437.568
PRISM 03 Sep 07:39:41 07:43:45 70° 76° (ENE) 07:47:50 437.425
YUBILEINY 03 Sep 07:51:20 07:59:12 36° 73° (ENE) 08:07:09 435.215
Cubesat XI-IV 03 Sep 07:59:54 08:05:09 59° 286° (WNW) 08:10:23 437.490
AIST 1 03 Sep 08:09:02 08:13:10 54° 94° (E) 08:17:20
BRITE-PL 03 Sep 08:31:10 08:36:42 57° 99° (E) 08:42:18 437.365/2234.400
Cosmos 2491 03 Sep 08:36:25 08:44:09 39° 88° (E) 08:52:02 435.465 / 435.565
CUTE-I 03 Sep 08:44:57 08:49:08 23° 292° (WNW) 08:53:10 437.470
GOMX 1 03 Sep 08:47:00 08:52:17 47° 98° (E) 08:57:33 467.674
CANX-2 03 Sep 08:47:05 08:49:38 16° 92° (E) 08:52:22 2200.000
DOVE 4 03 Sep 08:48:18 08:52:48 28° 94° (E) 08:57:19 437.250
ISS 03 Sep 08:54:27 08:57:25 31° 325° (NW) 09:00:23 145.825
PHONESAT 2.4 03 Sep 08:58:01 09:01:18 48° 12° (NNE) 09:04:37 2401.200-2431.200
VERMONT LUNAR 03 Sep 09:03:00 09:05:01 17° 214° (SW) 09:06:59 437.305
SEEDS 03 Sep 09:03:36 09:06:20 17° 92° (E) 09:09:13 437.485
CINEMA 3 03 Sep 09:15:02 09:18:43 21° 92° (E) 09:22:25 145.822/145.860
HO-68 03 Sep 09:19:33 09:26:22 45° 99° (E) 09:33:12 435.675
COMPASS 1 03 Sep 09:20:42 09:23:51 21° 94° (E) 09:27:04 437.405
AAUSAT CUBESAT 2 03 Sep 09:28:29 09:31:40 22° 94° (E) 09:34:55 437.432
M-CUBED/EXP-1 PRIME 03 Sep 09:36:28 09:38:03 12° 61° (ENE) 09:39:54 437.505
TIGRISAT 03 Sep 09:45:20 09:46:46 12° 66° (ENE) 09:48:29 435.000
YUBILEINY 03 Sep 09:47:56 09:56:11 44° 271° (W) 10:04:15 435.215
DANDE 03 Sep 09:57:20 10:01:21 15° 64° (ENE) 10:06:05 436.750
SO-50 03 Sep 09:59:58 10:04:51 61° 58° (ENE) 10:09:35 436.795
ANTELSAT 03 Sep 10:01:44 10:04:53 19° 68° (ENE) 10:08:12 437.575/2403.000
Cosmos 2504 03 Sep 10:06:36 10:14:01 35° 72° (ENE) 10:21:08 435.465 / 435.565
CUTE 1.7 + AOD 2 03 Sep 10:07:09 10:11:18 58° 285° (WNW) 10:15:24 437.475
BRITE-PL 03 Sep 10:10:55 10:14:48 19° 292° (WNW) 10:18:31 437.365/2234.400
ZACube-1 03 Sep 10:12:32 10:15:45 20° 93° (E) 10:19:02 437.345
